Location: �perlecques
(50.8057°N, 2.1521°E)
Time: 00:14:28
(UTC+00:00)

BlueWalker 3 - Visible Passes

Search period start: 01 December 2023 00:00
Search period end: 11 December 2023 00:00
Orbit: 489 x 504 km, 53.2° (Epoch: 29 November)

Date Brightness Start Highest point End Pass type
(mag) Time Alt. Az. Time Alt. Az. Time Alt. Az.
01 Dec 3.8 04:24:08 29° E 04:24:08 29° E 04:26:07 10° ESE visible
01 Dec 2.8 05:58:41 22° W 06:00:28 35° SW 06:03:58 10° SSE visible
02 Dec 4.7 04:02:34 17° E 04:02:34 17° E 04:03:30 10° ESE visible
02 Dec 2.7 05:37:08 32° WSW 05:37:51 35° SW 05:41:22 10° SSE visible
03 Dec 2.9 05:15:37 34° SSW 05:15:37 34° SSW 05:18:45 10° SSE visible
04 Dec 3.6 04:54:09 25° SSE 04:54:09 25° SSE 04:56:06 10° SSE visible
05 Dec 4.5 04:32:44 15° SSE 04:32:44 15° SSE 04:33:27 10° SSE visible
